Tracking 31027 objects as of 19-Jul-2025
HD Live streaming from Space Station
objects crossing your sky now

COSMOS 2251 DEB

Track COSMOS 2251 DEB now!
10-day predictions


NORAD ID: 34569
Int'l Code: 1993-036VF
Perigee: 704.2 km
Apogee: 932.6 km
Inclination: 74.0 °
Period: 101.1 minutes
Semi major axis: 7189 km
RCS: 0.0194 m2 (small)
Launch date: June 16, 1993
Source: Commonwealth of Independent States (former USSR) (CIS)
Launch site: PLESETSK MISSILE AND SPACE COMPLEX (PKMTR)

Note: This is SATELLITE DEBRIS
Your satellite tracking list
BELINTERSAT 1
Track 1 satellite(s)




NASA's NSSDC Master Catalog

Two Line Element Set (TLE):
1 34569U 93036VF  25199.54437262  .00000958  00000-0  37537-3 0  9997
2 34569  73.9916 104.1647 0158852 325.8910  96.5722 14.24182252848725
Source of the keplerian elements: AFSPC